sat.trackr.live / text

‹ back to catalog

GSAT0223 (GALILEO 27)

NORAD 49809 · 2021-116A

PAYLOAD ACTIVE UNKNOWN

§ Identity

Operator
Country
ESA
Launch date
2021-12-05
Launch site
FRGUI
Launch vehicle
Mass (kg)
RCS (m²)

Purposes: earth_obs, nav

External: N2YO · Heavens-Above · Gunter

§ Orbital elements

Epoch: 2026-05-22T18:27:52.519968Z

Period
844.69 min
Inclination
57.1681°
Eccentricity
0.0000787
Mean motion
1.70475764 rev/d
Perigee alt
23,219.6 km
Apogee alt
23,224.3 km
Semi-major
29,600.1 km
B*
0.0000e+0
RAAN
342.3603°
Arg perigee
191.0979°
Mean anomaly
169.2233°
Rev number
2,775

§ Raw data

GSAT0223 (GALILEO 27)1 49809U 21116A   26142.76935787 -.00000088  00000+0  00000+0 0  99932 49809  57.1681 342.3603 0000787 191.0979 169.2233  1.70475764 27757

JSON: /api/v1/satellites/49809 · /tle

For live sub-satellite position, see the globe view (requires WebGL).

§ Visibility from observer

Set your observer location to see the next 7 days of passes ≥ 10°. The values pass through the URL so the page stays shareable.

No JS? Fill the form by hand. The geolocation button needs JavaScript.